This is the latest recevied weather packets stored in our database for station/object W7JFO-3. If no packets are shown the sender has not sent any weather packets the latest 10 day(s).
| Time | Temp. | Humidity | Pressure | Rain* | Wind** | Luminosity | Snow |
|---|---|---|---|---|---|---|---|
| 1777087929 | 1.11° C | 54% | 1017.6 hPa | 0 mm | - | 0 W/m² | - |
| 1777087029 | 0.56° C | 56% | 1017.5 hPa | 0 mm | - | 0 W/m² | - |
| 1777086129 | 1.11° C | 56% | 1017.5 hPa | 0 mm | - | 0 W/m² | - |
| 1777085229 | 1.11° C | 55% | 1017.4 hPa | 0 mm | - | 0 W/m² | - |
| 1777084329 | 1.11° C | 58% | 1017.6 hPa | 0 mm | - | 5 W/m² | - |
| 1777083429 | 1.11° C | 53% | 1017.9 hPa | 0 mm | - | 7 W/m² | - |
| 1777082529 | 1.11° C | 52% | 1017.9 hPa | 0 mm | - | 9 W/m² | - |
| 1777081629 | 1.11° C | 54% | 1017.7 hPa | 0 mm | - | 14 W/m² | - |
| 1777080729 | 1.67° C | 53% | 1017.7 hPa | 0 mm | - | 18 W/m² | - |
| 1777079829 | 1.67° C | 51% | 1017.7 hPa | 0 mm | - | 49 W/m² | - |
| 1777078929 | 1.67° C | 51% | 1017.8 hPa | 0 mm | - | 72 W/m² | - |
| 1777078029 | 1.67° C | 48% | 1017.9 hPa | 0 mm | - | 97 W/m² | - |
| 1777077129 | 1.67° C | 47% | 1017.8 hPa | 0 mm | - | 132 W/m² | - |
| 1777076229 | 2.22° C | 45% | 1017.9 hPa | 0 mm | - | 146 W/m² | - |
| 1777075329 | 1.67° C | 47% | 1018 hPa | 0 mm | - | 239 W/m² | - |
| 1777074429 | 1.67° C | 50% | 1018.2 hPa | 0 mm | - | 255 W/m² | - |
| 1777073529 | 2.22° C | 45% | 1018.1 hPa | 0 mm | - | 121 W/m² | - |
| 1777072629 | 2.22° C | 44% | 1017.8 hPa | 0 mm | - | 237 W/m² | - |
| 1777071729 | 2.78° C | 46% | 1017.7 hPa | 0 mm | - | 251 W/m² | - |
| 1777070829 | 2.78° C | 44% | 1017.8 hPa | 0 mm | - | 413 W/m² | - |
| 1777069929 | 2.78° C | 43% | 1018.1 hPa | 0 mm | - | 445 W/m² | - |
| 1777069029 | 2.78° C | 48% | 1018.2 hPa | 0 mm | - | 424 W/m² | - |
| 1777068129 | 2.78° C | 48% | 1018.3 hPa | 0 mm | - | 390 W/m² | - |
| 1777067230 | 2.78° C | 48% | 1018.4 hPa | 0 mm | - | 575 W/m² | - |
| 1777066330 | 1.67° C | 50% | 1018.8 hPa | 0 mm | - | 207 W/m² | - |
* Rain latest hour (hover to see other rain measurements)
** Current wind speed in m/s (hover to see current wind gust speed)